This demonstration page uses our WeatherBlox Daily Observations layout. Learn more.

Left ArrowRight Arrow

36.17497, -115.13722

Hourly Observations for January 22, 2017

Temp ( °F °C ) Dew Point ( °F °C ) Humidity (%) Winds ( mph kmh ) Pressure ( in mb ) Visibility ( mi km ) Precip ( " mm )
12:53 am 00:53 Mostly Cloudy 44 6.7 34 1.1 68 68 SE 5 7 30.05 1018 10 16 N/A
1:53 am 01:53 Mostly Cloudy 44 6.7 35 1.7 71 71 NNW 3 6 30.08 1019 10 16 N/A
2:53 am 02:53 Mostly Cloudy 45 7.2 34 1.1 66 66 SE 5 7 30.08 1019 10 16 N/A
3:53 am 03:53 Cloudy 45 7.2 35 1.7 68 68 SE 6 9 30.06 1018 10 16 N/A
4:53 am 04:53 Cloudy 47 8.3 36 2.2 66 66 S 10 17 30.07 1018 10 16 N/A
5:53 am 05:53 Cloudy 46 7.8 38 3.3 73 73 S 3 6 30.10 1019 10 16 N/A
6:53 am 06:53 Cloudy 44 6.7 38 3.3 79 79 SSE 6 9 30.12 1020 10 16 N/A
7:53 am 07:53 Cloudy 43 6.1 40 4.4 89 89 ESE 5 7 30.12 1020 10 16 N/A
8:53 am 08:53 Cloudy 45 7.2 39 3.9 80 80 SSW 8 13 30.14 1021 10 16 N/A
9:25 am 09:25 Cloudy 44 6.7 40 4.4 85 85 S 6 9 30.12 1020 10 16 N/A
9:53 am 09:53 Cloudy with Light Rain 44 6.7 41 5 89 89 SE 7 11 30.14 1021 8 13 N/A
10:20 am 10:20 Cloudy with Light Rain 45 7 41 5 87 87 SSE 8 13 30.12 1020 10 16 N/A
10:53 am 10:53 Cloudy with Light Rain 45 7.2 41 5 86 86 SSE 8 13 30.12 1020 9 14 0.05 1.27
11:53 am 11:53 Cloudy with Light Rain 44 6.7 41 5 89 89 E 6 9 30.09 1019 7 11 0.05 1.27
12:21 pm 12:21 Cloudy with Light Rain 44 6.7 42 5.6 93 93 ESE 8 13 30.03 1017 8 13 0.04 1.02
12:53 pm 12:53 Cloudy with Light Rain 45 7.2 41 5 86 86 SE 9 15 30.06 1018 10 16 0.05 1.27
1:53 pm 13:53 Cloudy with Light Rain 44 6.7 41 5 89 89 SE 8 13 30.02 1017 10 16 0.04 1.02
2:53 pm 14:53 Cloudy with Light Rain 44 6.7 42 5.6 93 93 ESE 8 13 30.02 1017 8 13 0.07 1.78
3:34 pm 15:34 Cloudy with Light Rain 45 7 43 6 93 93 ESE 9 15 29.97 1015 10 16 N/A
3:53 pm 15:53 Cloudy with Light Rain 44 6.7 42 5.6 93 93 E 8 13 29.99 1016 10 16 0.05 1.27
4:51 pm 16:51 Cloudy with Light Rain 45 7 43 6 93 93 ENE 6 9 29.97 1015 8 13 0.04 1.02
4:53 pm 16:53 Cloudy with Light Rain 44 6.7 43 6.1 96 96 ENE 6 9 29.99 1016 8 13 0.04 1.02
5:10 pm 17:10 Cloudy with Light Rain 45 7 43 6 93 93 ENE 6 9 29.94 1014 10 16 N/A
5:53 pm 17:53 Cloudy with Light Rain 45 7.2 43 6.1 93 93 E 3 6 29.98 1015 10 16 0.02 0.51
6:53 pm 18:53 Cloudy with Light Rain 44 6.7 43 6.1 96 96 S 3 6 29.96 1014 9 14 0.02 0.51
7:53 pm 19:53 Cloudy with Light Rain 45 7.2 43 6.1 93 93 NE 5 7 29.93 1014 5 8 0.03 0.76
8:53 pm 20:53 Cloudy with Light Rain 45 7.2 43 6.1 93 93 NE 5 7 29.89 1012 6 10 0.02 0.51
9:01 pm 21:01 Cloudy with Light Rain 45 7.2 43 6.1 93 93 ENE 3 6 29.85 1011 4 6 0.01 0.25
9:53 pm 21:53 Cloudy with Light Rain 45 7.2 44 6.7 97 97 ESE 12 19 29.85 1011 10 16 0.06 1.52
10:53 pm 22:53 Cloudy with Light Rain 48 8.9 46 7.8 93 93 SSE 15 24 29.84 1011 7 11 0.09 2.29
11:53 pm 23:53 Cloudy with Light Rain 48 8.9 43 6.1 83 83 SSE 14 22 29.82 1010 10 16 0.01 0.25

Powered by AerisWeather